Regional Weather Roundup
Issued by NWS

Home | Current Version | Previous Version | Graphics & Text | Print | Product List | Glossary On
Versions: 1 2 3 4 5 6 7 8 9 10 11 12 13 14 15 16 17 18 19 20 21 22 23 24 25 26 27 28 29 30 31 32 33 34 35 36 37 38 39 40 41 42 43 44 45 46 47 48 49 50
000
ASUS43 KBIS 190901
RWRND

NORTH DAKOTA REGIONAL WEATHER ROUNDUP
NATIONAL WEATHER SERVICE BISMARCK ND
400 AM CDT SUN APR 19 2015

NOTE: "FAIR" INDICATES FEW OR NO CLOUDS BELOW 12,000 FEET WITH NO
SIGNIFICANT WEATHER AND/OR OBSTRUCTIONS TO VISIBILITY.


NDZ001>003-009>011-017-191000-
NORTHWEST NORTH DAKOTA

CITY           SKY/WX    TMP DP  RH WIND       PRES   REMARKS
WILLISTON      CLOUDY    39  27  62 W15       30.00F
MINOT          CLOUDY    42  32  67 W16       29.89F
MINOT AFB      CLOUDY    40  37  88 NW15      29.88F
$$

NDZ018>021-031>035-040>046-191000-
SOUTHWEST NORTH DAKOTA

CITY           SKY/WX    TMP DP  RH WIND       PRES   REMARKS
BISMARCK       CLOUDY    44  36  73 NW21      29.90S
DICKINSON      PTCLDY    35  27  72 W12       29.97F
GARRISON         N/A     41  34  76 NW17      29.90F
HETTINGER ARPT MOCLDY    36  30  79 NW13      29.99F
$$

NDZ004>008-012>016-024-026-027-054-191000-
NORTHEAST NORTH DAKOTA

CITY           SKY/WX    TMP DP  RH WIND       PRES   REMARKS
GRAND FORKS    LGT RAIN  49  46  90 NW6       29.76F
GRND FRKS AFB  LGT RAIN  49  46  88 NW10      29.75F
DEVILS LAKE    CLOUDY    45  41  87 NW17      29.80F
$$

NDZ022-023-025-028>030-036>039-047>053-191000-
SOUTHEAST NORTH DAKOTA

CITY           SKY/WX    TMP DP  RH WIND       PRES   REMARKS
FARGO          RAIN      52  50  93 NE5       29.74F FOG
JAMESTOWN      LGT RAIN  47  45  93 NW17G24   29.78F
$$




USA.gov is the U.S. government's official web portal to all federal, state and local government web resources and services.